Weather in Kirzach

Russia / Vladimir Oblast     56°09′42″N   38°52′19″E
В апреле 2022 года жителям России запретили посещать сайт meteo.paraplan.net по решению Генеральной прокуратуры. Аудитория сайта уменьшилась в 10 раз. Владельцы сайта не видят смысла в поддержке погодного сервера в таких условиях. Сайт будет закрыт в октябре.
temp.,
°C
wind,
m/s
gust,
m/s
humid.,
%
clouds,
%
prec.,
mm/h
press.,
hPa
HPBL,
m
30 september, fri
fri3000:00+8s259668 0.0 101499
03:00+7sse2796100 0.0 1015165
06:00+7sse3995100 0.0 1015221
09:00+10sse3884100 0.0 1016283
12:00+14s5870100 0.0 1015666
15:00+16s487698 0.0 1015938
18:00+14s499098 0.1 1016468
21:00+12s389889 0.3 1016330
1 october, sat
sat100:00+10ssw2499100 0.0 1017104
03:00+11ssw1298100 0.0 101789
06:00+11ese1198100 0.1 101726
09:00+12ese1296100 0.1 1016126
12:00+13se1392100 0.0 1015241
15:00+14ese128999 0.0 1013345
18:00+13ese2598100 0.0 1011187
21:00+13se31098100 0.3 1008310
2 october, sun
sun200:00+13s41097100 2.0 1006503
03:00+12ssw5109295 2.5 1005683
06:00+9sw51086100 0.2 1005855
09:00+9sw51191100 0.3 1005833
12:00+9sw51089100 0.0 1007779
15:00+10wsw4781100 0.0 1007866
18:00+9sw2689100 0.0 1008415
21:00+8ssw1193100 0.1 100820
3 october, mon
mon300:00+8ene2594100 0.0 1006163
03:00+8ne51294100 3.0 1003552
06:00+9e51596100 4.4 1000646
09:00+12ese51498100 6.1 997729
12:00+14se71691100 2.5 9961264
15:00+13se71793100 4.8 9951300
18:00+11s71389100 1.2 9971047
21:00+8s61291100 1.3 10011127
4 october, tue
tue400:00+8s61190100 0.2 10031355
03:00+7ssw61290100 0.6 10051318
06:00+6s51091100 0.1 10071053
09:00+7s5108415 0.2 1009832
12:00+11s6117247 0.1 10111214
15:00+12ssw597376 0.6 10121231
18:00+10s5117991 0.2 1014696
21:00+8s5128688 0.3 1015594